This demonstration page uses our WeatherBlox Daily Observations layout. Learn more.

Hourly Observations for January 25, 2015

Temp ( °F °C ) Dew Point ( °F °C ) Humidity (%) Winds ( mph kmh ) Pressure ( in mb ) Visibility ( mi km ) Precip ( " mm )
12:15 am 00:15 Cloudy 43 6.3 30 -1 60 60 NW 20 31 29.85 1011 10 16.0934 0 0
12:35 am 00:35 Cloudy 44 6.7 30 -1 58 58 NW 24 39 29.85 1011 10 16.0934 0 0
12:55 am 00:55 Cloudy 45 7.1 30 -1 57 57 NW 22 35 29.85 1011 10 16.0934 0 0
1:15 am 01:15 Cloudy 45 7 30 -1 57 57 NW 28 44 29.85 1011 10 16.0934 0 0
1:35 am 01:35 Cloudy 44 6.7 29 -1.5 56 56 NW 29 46 29.85 1011 10 16.0934 0 0
1:55 am 01:55 Mostly Cloudy 44 6.5 29 -1.6 57 57 NW 25 41 29.85 1011 10 16.0934 0 0
2:15 am 02:15 Cloudy 43 6.2 29 -1.5 58 58 NW 26 43 29.88 1012 10 16.0934 0 0
2:35 am 02:35 Cloudy 43 6.1 29 -1.5 59 59 NW 23 37 29.88 1012 10 16.0934 0 0
2:55 am 02:55 Mostly Cloudy 43 6 29 -1.6 59 59 NNW 23 37 29.88 1012 10 16.0934 0 0
3:15 am 03:15 Partly Cloudy 42 5.7 28 -2 58 58 NNW 24 39 29.91 1013 10 16.0934 0 0
3:35 am 03:35 Clear 41 5.1 28 -2.1 60 60 NNW 25 41 29.91 1013 10 16.0934 0 0
3:55 am 03:55 Partly Cloudy 40 4.5 28 -2.3 62 62 NNW 22 35 29.91 1013 10 16.0934 0 0
4:15 am 04:15 Clear 39 4.1 28 -2.2 64 64 NNW 21 33 29.97 1015 10 16.0934 0 0
4:35 am 04:35 Partly Cloudy 39 4.1 28 -2 65 65 NNW 25 41 29.97 1015 10 16.0934 0 0
4:55 am 04:55 Mostly Cloudy 40 4.7 28 -2 62 62 NNW 23 37 29.97 1015 10 16.0934 0 0
5:15 am 05:15 Cloudy 41 4.8 28 -2.2 61 61 NNW 24 39 29.97 1015 10 16.0934 0 0
5:35 am 05:35 Cloudy 40 4.5 28 -2.5 61 61 NNW 25 41 29.97 1015 10 16.0934 0 0
5:55 am 05:55 Mostly Cloudy 40 4.3 27 -2.8 60 60 NNW 25 41 30 1016 10 16.0934 0 0
6:15 am 06:15 Partly Cloudy 38 3.6 27 -2.7 64 64 NNW 20 31 30 1016 10 16.0934 0 0
6:35 am 06:35 Partly Cloudy 39 3.7 27 -2.8 63 63 NNW 24 39 30 1016 10 16.0934 0 0
6:55 am 06:55 Clear 38 3.5 27 -3 63 63 NNW 21 33 30.03 1017 10 16.0934 0 0
7:15 am 07:15 Clear 38 3.1 27 -2.8 66 66 NNW 20 31 30.03 1017 10 16.0934 0 0
7:35 am 07:35 Clear 37 2.5 27 -2.8 68 68 NNW 16 26 30.03 1017 10 16.0934 0 0
7:55 am 07:55 Sunny 37 2.5 27 -2.8 68 68 NNW 16 26 30.03 1017 10 16.0934 0 0
8:15 am 08:15 Sunny 36 2.2 27 -2.7 70 70 NNW 16 26 30.06 1018 10 16.0934 0 0
8:35 am 08:35 Partly Cloudy 37 2.7 28 -2.5 69 69 NNW 16 26 30.03 1017 10 16.0934 0 0
8:55 am 08:55 Mostly Cloudy 37 3 28 -2.4 68 68 NNW 17 28 30.06 1018 10 16.0934 0 0
9:15 am 09:15 Mostly Cloudy 39 3.7 28 -2.1 66 66 NNW 23 37 30.06 1018 10 16.0934 0 0
9:35 am 09:35 Partly Cloudy 40 4.4 29 -1.9 64 64 NNW 24 39 30.06 1018 10 16.0934 0 0
9:55 am 09:55 Sunny 41 4.9 28 -2 61 61 NNW 29 46 30.06 1018 10 16.0934 0 0
10:15 am 10:15 Sunny 41 5.1 28 -2.2 60 60 NNW 23 37 30.09 1019 10 16.0934 0 0
10:35 am 10:35 Sunny 42 5.7 28 -2 58 58 NNW 22 35 30.09 1019 10 16.0934 0 0
10:55 am 10:55 Sunny 43 5.9 28 -2.3 56 56 N 24 39 30.12 1020 10 16.0934 0 0
11:15 am 11:15 Partly Cloudy 42 5.6 28 -2.5 56 56 NNW 20 31 30.12 1020 10 16.0934 0 0
11:35 am 11:35 Partly Cloudy 43 6 28 -2.3 56 56 NNW 21 33 30.12 1020 10 16.0934 0 0
11:55 am 11:55 Sunny 44 6.6 28 -2.2 54 54 N 20 31 30.09 1019 10 16.0934 0 0
12:15 pm 12:15 Sunny 44 6.9 28 -2.4 52 52 NNW 23 37 30.09 1019 10 16.0934 0 0
12:35 pm 12:35 Sunny 45 7.1 28 -2.4 51 51 N 18 30 30.09 1019 10 16.0934 0 0
12:55 pm 12:55 Partly Cloudy 46 7.5 26 -3.1 47 47 N 17 28 30.09 1019 10 16.0934 0 0
1:15 pm 13:15 Partly Cloudy 45 7.3 26 -3.3 47 47 NNW 17 28 30.09 1019 10 16.0934 0 0
1:35 pm 13:35 Mostly Cloudy 45 7.4 25 -4 45 45 NNW 15 24 30.09 1019 10 16.0934 0 0
1:55 pm 13:55 Mostly Cloudy 46 7.7 26 -3.6 45 45 N 16 26 30.09 1019 10 16.0934 0 0
2:15 pm 14:15 Partly Cloudy 46 7.5 25 -4 44 44 NNW 18 30 30.06 1018 10 16.0934 0 0
2:35 pm 14:35 Partly Cloudy 46 7.7 25 -3.7 45 45 NNW 16 26 30.06 1018 10 16.0934 0 0
2:55 pm 14:55 Sunny 45 7.1 25 -3.7 47 47 NNW 18 30 30.09 1019 10 16.0934 0 0
3:15 pm 15:15 Partly Cloudy 46 7.7 26 -3.6 45 45 NNW 17 28 30.09 1019 10 16.0934 0 0
3:35 pm 15:35 Partly Cloudy 46 7.8 26 -3.3 46 46 NNW 13 20 30.09 1019 10 16.0934 0 0
3:55 pm 15:55 Sunny 46 7.5 26 -3.1 47 47 N 12 19 30.09 1019 10 16.0934 0 0
4:15 pm 16:15 Sunny 45 7.3 26 -3.3 47 47 N 9 15 30.12 1020 10 16.0934 0 0
4:35 pm 16:35 Sunny 45 7.2 26 -3.3 48 48 N 10 17 30.12 1020 10 16.0934 0 0
4:55 pm 16:55 Sunny 44 6.5 26 -3.1 51 51 N 6 9 30.09 1019 10 16.0934 0 0
5:15 pm 17:15 Sunny 42 5.7 26 -3.2 53 53 N 6 9 30.12 1020 10 16.0934 0 0
5:35 pm 17:35 Sunny 38 3.6 24 -4.2 57 57 NNE 6 9 30.15 1021 10 16.0934 0 0
5:55 pm 17:55 Clear 35 1.9 24 -4.7 62 62 NE 5 7 30.15 1021 10 16.0934 0 0
6:15 pm 18:15 Clear 34 1 24 -4.7 66 66 NE 3 6 30.15 1021 10 16.0934 0 0
6:35 pm 18:35 Clear 34 1.1 24 -4.5 67 67 E 3 6 30.15 1021 10 16.0934 0 0
6:55 pm 18:55 Clear 33 0.8 24 -4.3 69 69 SE 5 7 30.15 1021 10 16.0934 0 0
7:15 pm 19:15 Clear 31 -0.8 22 -5.3 72 72 SE 3 6 30.18 1022 10 16.0934 0 0
7:35 pm 19:35 Clear 30 -1 23 -5.2 73 73 Calm 30.18 1022 10 16.0934 0 0
7:55 pm 19:55 Clear 31 -0.3 24 -4.3 75 75 Calm 30.18 1022 10 16.0934 0 0
8:15 pm 20:15 Clear 30 -1.1 23 -5.1 75 75 S 3 6 30.18 1022 10 16.0934 0 0
8:35 pm 20:35 Clear 32 -0.2 24 -4.3 74 74 S 5 7 30.18 1022 10 16.0934 0 0
8:55 pm 20:55 Mostly Cloudy 30 -1.3 23 -4.9 77 77 S 3 6 30.18 1022 10 16.0934 0 0
9:15 pm 21:15 Cloudy 32 0 25 -3.7 76 76 S 6 9 30.18 1022 10 16.0934 0 0
9:35 pm 21:35 Cloudy 33 0.8 26 -3.2 75 75 S 5 7 30.15 1021 10 16.0934 0 0
9:55 pm 21:55 Cloudy 35 1.5 27 -2.9 73 73 SSW 7 11 30.15 1021 10 16.0934 0 0
10:15 pm 22:15 Cloudy 35 1.7 27 -2.8 72 72 SSW 9 15 30.15 1021 10 16.0934 0 0
10:35 pm 22:35 Cloudy 36 2 27 -2.6 72 72 SSW 6 9 30.15 1021 10 16.0934 0 0
10:55 pm 22:55 Cloudy 37 2.5 27 -2.8 68 68 SSW 9 15 30.15 1021 10 16.0934 0 0
11:15 pm 23:15 Cloudy 37 2.5 27 -3 67 67 SSW 10 17 30.15 1021 10 16.0934 0 0
11:35 pm 23:35 Cloudy 37 2.6 27 -3 67 67 SSW 8 13 30.15 1021 10 16.0934 0 0
11:55 pm 23:55 Cloudy 37 2.8 27 -3 66 66 SW 9 15 30.15 1021 10 16.0934 0 0

Powered by AerisWeather